Cherry Point, NC

4:19 AM EDT on April 30, 2017 (GMT -0400)
Cherry Point Marine Corps Air Station

Weather History for KNKT - November, 2012

Change the Weather History Date:

Friday, November 2, 2012

  Actual Average Record
Temperature  
Mean Temperature 50 °F -  
Max Temperature 64 °F 67 °F 82 °F (2004)
Min Temperature 37 °F 46 °F 37 °F (2000)
Degree Days  
Heating Degree Days 14    
Moisture  
Dew Point 36 °F    
Average Humidity 62    
Maximum Humidity 89    
Minimum Humidity 33    
Precipitation  
Precipitation 0.02 in - - ()
Sea Level Pressure  
Sea Level Pressure 29.88 in    
Wind  
Wind Speed 5 mph ()    
Max Wind Speed 20 mph    
Max Gust Speed 26 mph    
Visibility 9.8 miles    
Events      
Averages and records for this station are not official NWS values.
T = Trace of Precipitation, MM = Missing Value Source: Averaged Metar Reports

Daily Weather History Graph

Daily Weather History Graph

Search for Another Location

Airport or City:

Trip Planner

Search our weather history database for the weather conditions in past years. The results will help you decide how hot, cold, wet, or windy it might be!

Date:

Astronomy

Nov. 02, 2012 Rise Set
Actual Time 7:29 AM EDT 6:11 PM EDT
Civil Twilight 7:03 AM EDT 6:38 PM EDT
Nautical Twilight 6:33 AM EDT 7:08 PM EDT
Astronomical Twilight 6:03 AM EDT 7:37 PM EDT
Moon 9:01 PM EDT (11/2) 10:43 AM EDT (11/2)
Length of Visible Light 11h 34m
Length of Day
10h 42m
Waning Gibbous, 87% of the Moon is Illuminated
Nov 2
Waning Gibbous
Nov 6
Last Quarter
Nov 13
New
Nov 20
First Quarter
Nov 28
Full

Hourly Weather History & Observations

Time (EDT) Temp. Windchill Dew Point Humidity Pressure Visibility Wind Dir Wind Speed Gust Speed Precip Events Conditions
12:54 AM 43.0 °F 38.8 °F 37.0 °F 80% 29.87 in 10.0 mi WSW 6.9 mph - N/A   Clear
1:54 AM 42.1 °F - 37.0 °F 82% 29.87 in 10.0 mi Calm Calm - N/A   Clear
2:54 AM 37.9 °F 32.7 °F 35.1 °F 89% 29.88 in 9.0 mi WSW 6.9 mph - N/A   Clear
3:54 AM 39.9 °F 36.7 °F 37.0 °F 89% 29.88 in 9.0 mi SW 4.6 mph - N/A   Clear
4:54 AM 41.0 °F - 37.0 °F 86% 29.87 in 9.0 mi Calm Calm - N/A   Clear
5:54 AM 37.9 °F 34.4 °F 34.0 °F 86% 29.89 in 9.0 mi West 4.6 mph - N/A   Clear
6:54 AM 41.0 °F 36.4 °F 34.0 °F 76% 29.91 in 10.0 mi West 6.9 mph - N/A   Clear
7:54 AM 41.0 °F 37.1 °F 33.1 °F 73% 29.91 in 10.0 mi West 5.8 mph - N/A   Clear
8:54 AM 46.0 °F 44.8 °F 34.0 °F 63% 29.92 in 10.0 mi WNW 3.5 mph - N/A   Clear
9:54 AM 53.1 °F - 33.1 °F 47% 29.93 in 10.0 mi Calm Calm - N/A   Clear
10:54 AM 57.9 °F - 32.0 °F 37% 29.91 in 10.0 mi SW 8.1 mph - 0.02 in   Clear
11:54 AM 63.0 °F - 33.1 °F 33% 29.89 in 10.0 mi WSW 15.0 mph 19.6 mph N/A   Clear
12:54 PM 63.0 °F - 33.1 °F 33% 29.85 in 10.0 mi SW 11.5 mph 20.7 mph N/A   Scattered Clouds
1:54 PM 64.0 °F - 35.1 °F 34% 29.81 in 10.0 mi SW 18.4 mph 26.5 mph N/A   Mostly Cloudy
2:54 PM 63.0 °F - 35.1 °F 35% 29.79 in 10.0 mi SW 19.6 mph - N/A   Scattered Clouds
3:54 PM 64.0 °F - 35.1 °F 34% 29.79 in 10.0 mi WSW 13.8 mph - N/A   Scattered Clouds
4:54 PM 64.0 °F - 36.0 °F 35% 29.81 in 10.0 mi West 10.4 mph - N/A   Scattered Clouds
5:54 PM 61.0 °F - 37.9 °F 42% 29.83 in 10.0 mi West 6.9 mph - N/A   Scattered Clouds
6:54 PM 57.9 °F - 39.9 °F 51% 29.88 in 10.0 mi North 10.4 mph - N/A   Clear
7:54 PM 55.0 °F - 41.0 °F 59% 29.90 in 10.0 mi NNE 3.5 mph - N/A   Clear
8:54 PM 52.0 °F - 42.1 °F 69% 29.92 in 10.0 mi Calm Calm - N/A   Clear
9:54 PM 46.9 °F - 41.0 °F 80% 29.94 in 10.0 mi Calm Calm - N/A   Clear
10:54 PM 45.0 °F - 41.0 °F 86% 29.96 in 10.0 mi Calm Calm - N/A   Clear
11:54 PM 43.0 °F - 39.9 °F 89% 29.96 in 10.0 mi Calm Calm - N/A   Clear